Regional Weather Roundup
Issued by NWS Mobile, AL

Home | Current Version | Previous Version | Text Only | Print | Product List | Glossary On
Versions: 1 2 3 4 5 6 7 8 9 10 11 12 13 14 15 16 17 18 19 20 21 22 23 24 25 26 27 28 29 30 31 32 33 34 35 36 37 38 39 40 41 42 43 44 45 46 47 48 49 50
000
ASUS44 KMOB 180810
RWRMOB
REGIONAL WEATHER ROUNDUP
NATIONAL WEATHER SERVICE MOBILE AL
300 AM CDT THU SEP 18 2014

NOTE: "FAIR" INDICATES FEW OR NO CLOUDS BELOW 12,000 FEET WITH NO
      SIGNIFICANT WEATHER AND/OR OBSTRUCTIONS TO VISIBILITY.

  * THESE STATIONS ARE PART OF THE UNIVERSITY OF SOUTH ALABAMA
    MESONET AND ARE NOT UNDER NWS OR FAA QUALITY CONTROL.

ALZ061>064-180900-
COASTAL ALABAMA

CITY           SKY/WX    TMP DP  RH WIND       PRES   REMARKS
MOBILE REG APT CLOUDY    73  72  96 CALM      29.92S
BROOKLEY FIELD MOCLDY    74  71  91 NW3       29.92R
USA CAMPUS*      N/A     72  70  94 CALM      29.91S
DOG RIVER*     NOT AVBL


CITY           SKY/WX    TMP DP  RH WIND       PRES   REMARKS
MOUNT VERNON*    N/A     66  64  94 CALM      29.91F
SARALAND*      NOT AVBL
BAY MINETTE*   NOT AVBL
LOXLEY*          N/A    N/A N/A N/A CALM      29.91S
ROBERTSDALE*     N/A    N/A N/A N/A CALM      29.90F
FAIRHOPE*        N/A     73  73 100 CALM      29.90S
ELBERTA*         N/A     73  59  60 CALM      29.89S
FOLEY*         NOT AVBL
GRAND BAY*       N/A     72  72 100 N3        29.89S
DAUPHIN ISLND* NOT AVBL
BON SCOUR NWR* NOT AVBL
GULF SHORES    PTCLDY    72  72  99 CALM      29.89F FOG

$$

ALZ051>060-180900-
INTERIOR SOUTHWEST AND SOUTH CENTRAL ALABAMA

CITY           SKY/WX    TMP DP  RH WIND       PRES   REMARKS
GREENVILLE     NOT AVBL
EVERGREEN      CLEAR     70  68  93 NW5       29.92S
CASTLEBERRY*   NOT AVBL
ATMORE*          N/A     70  70 100 CALM      29.93S
DIXIE*         NOT AVBL
ANDALUSIA/OPP  CLEAR     74  68  81 CALM      29.91F
ANDALUSIA*     NOT AVBL
FLORALA APT    CLEAR     71  68  90 N3        29.92F
FLORALA*         N/A     70  68  94 CALM      29.88S

$$

FLZ001>006-180900-
WESTERN FLORIDA PANHANDLE

CITY           SKY/WX    TMP DP  RH WIND       PRES   REMARKS
PENSACOLA      CLEAR     73  72  96 CALM      29.89S
NAS PENSACOLA  CLEAR     74  73  97 CALM      29.89S
MILTON         CLEAR     71  68  90 N3        29.90S
WHTNG S FIELD  CLEAR     72  69  90 CALM      29.90S


CITY           SKY/WX    TMP DP  RH WIND       PRES   REMARKS
WALNUT HILL*   NOT AVBL
JAY*           NOT AVBL
DUKE FIELD     CLEAR     72  72 100 CALM      29.90F
CRESTVIEW      PTCLDY    70  69  97 CALM      29.91S FOG
VALPARAISO     MOCLDY    74  71  88 CALM      29.90S
DESTIN         PTCLDY    77  71  82 CALM      29.89F

$$

MSZ076-079-180900-
INTERIOR SOUTHEAST MISSISSIPPI

CITY           SKY/WX    TMP DP  RH WIND       PRES   REMARKS
LEAKESVILLE*   NOT AVBL
AGRICOLA*      NOT AVBL

$$

MARINE OBSERVATIONS

STATION/POSITION TIME  TEMP    WIND        PRES    WAVE
                       AIR SEA DIR/SP/G            HT/PER
                 (UTC) (F)     (DEG/KT/KT) (MB)    (FT/S)
PASCAGOULA       0800   78     350/  4/  5 1012.0F
PETIT BOIS ISLND 0800   80      10/  5/  6 1012.5F
GRAND BAY        0700   77     350/  4     1014.0R
KATRINA CUT      0700   82     290/  4     1013.2S
CEDAR POINT      0700   78     360/  5     1012.5F
E DAUPHIN ISLAND 0700   81     320/  3/  3 1012.4S
MIDDLE BAY LIGHT 0700   81     290/  6     1011.5F
STATE DOCKS      0800   77 87              1012.5R
MEAHER PARK      0700   78      10/  1     1012.2S
WEEKS BAY        0700   74                   N/A
12 S ORANGE BCH  0800   83 85  330/  4/  6 1012.4R   1/ 8
PENSACOLA BAY    0800   78 87  330/  4/  6 1012.5R
64 S DAUPHIN ISL 0737   82 85  310/  4/  6 1012.8S   1/ 4
67 S FORT MORGAN 0700   81     VRB  4      1012.2F

$$

SELECTED LOCATIONS ACROSS THE REGION

CITY           SKY/WX    TMP DP  RH WIND       PRES   REMARKS
NEW ORLEANS    PTCLDY    76  72  87 CALM      29.89F
GULFPORT       MOCLDY    74  72  93 CALM      29.89F
PASCAGOULA AP  CLOUDY    72  71  97 CALM      29.90S
PASCAGOULA*      N/A     73  73 100 CALM      29.89F
HATTIESBURG    MOCLDY    73  71  93 CALM      29.91F FOG
LAUREL         MOCLDY   N/A N/A N/A CALM      29.91F
MERIDIAN       CLOUDY    70  66  87 CALM      29.93S
JACKSON        CLOUDY    73  69  87 CALM      29.92S
MONTGOMERY     PTCLDY    68  65  90 NW3       29.92F
TROY           CLEAR     66  65  96 CALM      29.93S FOG
KINSTON*       NOT AVBL
GENEVA*          N/A     70  68  94 CALM      29.92F
ASHFORD*       NOT AVBL
DOTHAN         CLEAR     71  69  93 NW3       29.94S
PANAMA CITY    CLEAR     73  70  90 CALM      29.89S

$$



USA.gov is the U.S. government's official web portal to all federal, state and local government web resources and services.